Marion, SC

8:04 AM EDT on April 27, 2017 (GMT -0400)
Marion County

Weather History for KMAO - October, 2012

Change the Weather History Date:

Monday, October 29, 2012

  Actual Average (KFLO) Record (KFLO)
Temperature  
Mean Temperature 54 °F -  
Max Temperature 59 °F 71 °F 84 °F (1974)
Min Temperature 50 °F 48 °F 29 °F (1976)
Degree Days  
Heating Degree Days 10    
Growing Degree Days 4 (Base 50)    
Moisture  
Dew Point 38 °F    
Average Humidity 56    
Maximum Humidity 71    
Minimum Humidity 44    
Precipitation  
Precipitation 0.00 in - - ()
Sea Level Pressure  
Sea Level Pressure 29.56 in    
Wind  
Wind Speed 11 mph (WNW)    
Max Wind Speed 24 mph    
Max Gust Speed 32 mph    
Visibility 10 miles    
Events      
Averages and records for this station are not official NWS values.
T = Trace of Precipitation, MM = Missing Value Source: NWS Daily Summary

Daily Weather History Graph

Daily Weather History Graph

Search for Another Location

Airport or City:

Trip Planner

Search our weather history database for the weather conditions in past years. The results will help you decide how hot, cold, wet, or windy it might be!

Date:

Astronomy

Oct. 29, 2012 Rise Set
Actual Time 7:34 AM EDT 6:26 PM EDT
Civil Twilight 7:09 AM EDT 6:52 PM EDT
Nautical Twilight 6:39 AM EDT 7:21 PM EDT
Astronomical Twilight 6:10 AM EDT 7:51 PM EDT
Moon 6:19 PM EDT (10/29) 7:22 AM EDT (10/29)
Length of Visible Light 11h 43m
Length of Day
10h 51m
Full, 100% of the Moon is Illuminated
Oct 29
Full
Oct 29
Full
Nov 6
Last Quarter
Nov 13
New
Nov 20
First Quarter

Hourly Weather History & Observations

Time (EDT) Temp. Dew Point Humidity Pressure Visibility Wind Dir Wind Speed Gust Speed Precip Events Conditions
12:15 AM 59.0 °F 48.2 °F 67% 29.59 in 10.0 mi NW 8.1 mph - N/A   Clear
12:55 AM 57.2 °F 46.4 °F 67% 29.60 in 10.0 mi WNW 11.5 mph 17.3 mph N/A   Clear
1:15 AM 55.4 °F 44.6 °F 67% 29.59 in 10.0 mi WNW 8.1 mph - N/A   Clear
1:35 AM 55.4 °F 44.6 °F 67% 29.59 in 10.0 mi NW 12.7 mph 16.1 mph N/A   Mostly Cloudy
1:55 AM 55.4 °F 42.8 °F 63% 29.59 in 10.0 mi NW 9.2 mph - N/A   Scattered Clouds
2:15 AM 53.6 °F 42.8 °F 67% 29.59 in 10.0 mi WNW 11.5 mph 17.3 mph N/A   Clear
2:35 AM 53.6 °F 42.8 °F 67% 29.59 in 10.0 mi NW 10.4 mph - N/A   Clear
2:55 AM 53.6 °F 42.8 °F 67% 29.59 in 10.0 mi WNW 10.4 mph 18.4 mph N/A   Scattered Clouds
3:15 AM 53.6 °F 41.0 °F 62% 29.59 in 10.0 mi WNW 8.1 mph - N/A   Mostly Cloudy
3:35 AM 53.6 °F 41.0 °F 62% 29.59 in 10.0 mi WNW 6.9 mph - N/A   Scattered Clouds
3:55 AM 51.8 °F 41.0 °F 67% 29.59 in 10.0 mi WNW 9.2 mph 18.4 mph N/A   Scattered Clouds
4:15 AM 51.8 °F 41.0 °F 67% 29.58 in 10.0 mi WNW 9.2 mph 16.1 mph N/A   Scattered Clouds
4:35 AM 51.8 °F 41.0 °F 67% 29.59 in 10.0 mi WNW 8.1 mph 16.1 mph N/A   Clear
4:55 AM 51.8 °F 41.0 °F 67% 29.59 in 10.0 mi WNW 8.1 mph - N/A   Clear
5:15 AM 50.0 °F 41.0 °F 71% 29.59 in 10.0 mi WNW 8.1 mph - N/A   Clear
5:35 AM 50.0 °F 41.0 °F 71% 29.59 in 10.0 mi WNW 6.9 mph - N/A   Mostly Cloudy
5:55 AM 50.0 °F 41.0 °F 71% 29.59 in 10.0 mi WNW 9.2 mph - N/A   Overcast
6:15 AM 51.8 °F 41.0 °F 67% 29.58 in 10.0 mi WNW 6.9 mph - N/A   Overcast
6:55 AM 51.8 °F 37.4 °F 58% 29.59 in 10.0 mi NW 6.9 mph 10.4 mph N/A   Overcast
7:15 AM 51.8 °F 37.4 °F 58% 29.59 in 10.0 mi WNW 8.1 mph - N/A   Overcast
7:35 AM 51.8 °F 35.6 °F 54% 29.59 in 10.0 mi WNW 10.4 mph 16.1 mph N/A   Overcast
7:55 AM 51.8 °F 35.6 °F 54% 29.59 in 10.0 mi WNW 11.5 mph - N/A   Overcast
8:15 AM 51.8 °F 35.6 °F 54% 29.59 in 10.0 mi WNW 10.4 mph - N/A   Overcast
8:35 AM 51.8 °F 35.6 °F 54% 29.59 in 10.0 mi WNW 8.1 mph 18.4 mph N/A   Overcast
8:55 AM 51.8 °F 37.4 °F 58% 29.60 in 10.0 mi WNW 8.1 mph - N/A   Overcast
9:15 AM 51.8 °F 37.4 °F 58% 29.60 in 10.0 mi WNW 9.2 mph - N/A   Overcast
9:35 AM 51.8 °F 37.4 °F 58% 29.60 in 10.0 mi WNW 9.2 mph - N/A   Overcast
9:55 AM 51.8 °F 35.6 °F 54% 29.59 in 10.0 mi NW 18.4 mph 25.3 mph N/A   Overcast
10:15 AM 51.8 °F 37.4 °F 58% 29.59 in 10.0 mi NW 10.4 mph 19.6 mph N/A   Overcast
10:35 AM 53.6 °F 35.6 °F 51% 29.59 in 10.0 mi WNW 11.5 mph 21.9 mph N/A   Overcast
10:55 AM 53.6 °F 35.6 °F 51% 29.58 in 10.0 mi WNW 20.7 mph 27.6 mph N/A   Overcast
11:15 AM 55.4 °F 35.6 °F 47% 29.58 in 10.0 mi WNW 19.6 mph - N/A   Overcast
11:35 AM 55.4 °F 35.6 °F 47% 29.58 in 10.0 mi WNW 16.1 mph 23.0 mph N/A   Overcast
11:55 AM 53.6 °F 35.6 °F 51% 29.58 in 10.0 mi WNW 13.8 mph 23.0 mph N/A   Overcast
12:15 PM 55.4 °F 35.6 °F 47% 29.57 in 10.0 mi NW 11.5 mph 20.7 mph N/A   Overcast
12:35 PM 55.4 °F 35.6 °F 47% 29.57 in 10.0 mi WNW 13.8 mph 23.0 mph N/A   Overcast
12:55 PM 55.4 °F 35.6 °F 47% 29.56 in 10.0 mi WNW 19.6 mph 27.6 mph N/A   Overcast
1:55 PM 55.4 °F 33.8 °F 44% 29.54 in 10.0 mi NW 12.7 mph 18.4 mph N/A   Overcast
2:15 PM 55.4 °F 35.6 °F 47% 29.54 in 10.0 mi WNW 11.5 mph 19.6 mph N/A   Overcast
2:35 PM 55.4 °F 35.6 °F 47% 29.53 in 10.0 mi WNW 19.6 mph 27.6 mph N/A   Overcast
2:55 PM 55.4 °F 35.6 °F 47% 29.52 in 10.0 mi West 20.7 mph 26.5 mph N/A   Overcast
3:15 PM 55.4 °F 33.8 °F 44% 29.52 in 10.0 mi WNW 16.1 mph 21.9 mph N/A   Overcast
3:35 PM 55.4 °F 35.6 °F 47% 29.51 in 10.0 mi WNW 12.7 mph 24.2 mph N/A   Overcast
4:35 PM 55.4 °F 35.6 °F 47% 29.51 in 10.0 mi WNW 24.2 mph 32.2 mph N/A   Overcast
4:55 PM 53.6 °F 35.6 °F 51% 29.50 in 10.0 mi WNW 19.6 mph 28.8 mph N/A   Overcast
5:15 PM 53.6 °F 35.6 °F 51% 29.50 in 10.0 mi WNW 11.5 mph 16.1 mph N/A   Overcast
5:35 PM 53.6 °F 35.6 °F 51% 29.49 in 10.0 mi WNW 9.2 mph - N/A   Overcast
5:55 PM 53.6 °F 37.4 °F 54% 29.49 in 10.0 mi West 10.4 mph 16.1 mph N/A   Overcast
6:15 PM 53.6 °F 37.4 °F 54% 29.49 in 10.0 mi WNW 10.4 mph - N/A   Overcast
6:35 PM 53.6 °F 35.6 °F 51% 29.49 in 10.0 mi West 16.1 mph 23.0 mph N/A   Overcast
6:55 PM 53.6 °F 35.6 °F 51% 29.49 in 10.0 mi WNW 15.0 mph 19.6 mph N/A   Overcast
7:15 PM 51.8 °F 33.8 °F 50% 29.50 in 10.0 mi WNW 15.0 mph 27.6 mph N/A   Mostly Cloudy
7:35 PM 51.8 °F 35.6 °F 54% 29.50 in 10.0 mi WNW 16.1 mph 20.7 mph N/A   Scattered Clouds
7:55 PM 51.8 °F 35.6 °F 54% 29.50 in 10.0 mi West 15.0 mph 21.9 mph N/A   Mostly Cloudy
8:15 PM 51.8 °F 33.8 °F 50% 29.51 in 10.0 mi West 13.8 mph 29.9 mph N/A   Overcast
8:35 PM 51.8 °F 33.8 °F 50% 29.51 in 10.0 mi WNW 19.6 mph 24.2 mph N/A   Overcast
8:55 PM 51.8 °F 32.0 °F 47% 29.51 in 10.0 mi West 17.3 mph 20.7 mph N/A   Overcast
11:35 PM 50.0 °F 33.8 °F 54% 29.51 in 10.0 mi West 13.8 mph 27.6 mph N/A   Light Drizzle
11:55 PM 50.0 °F 33.8 °F 54% 29.51 in 10.0 mi West 15.0 mph 19.6 mph N/A   Overcast